| time (UTC) | temp C | wind direction | speed KPH | gust KPH | rain 1hr cm | rain 24hr cm | rain mn cm | humidity % | barometer mb |
| 20260906095932 | 20 | 63 | 1.6 | 4.8 | 0.00 | 0.00 | 0.00 | 92 | 1016.8 |
| 20260906095252 | 20 | 69 | 3.2 | 4.8 | 0.00 | 0.00 | 0.00 | 92 | 1016.8 |
| 20260906094612 | 20 | 61 | 3.2 | 6.4 | 0.00 | 0.00 | 0.00 | 93 | 1016.8 |
| 20260906093932 | 20 | 57 | 3.2 | 1.6 | 0.00 | 0.00 | 0.00 | 93 | 1016.8 |
| 20260906092828 | 20 | 54 | 3.2 | 4.8 | 0.00 | 0.00 | 0.00 | 94 | 1016.8 |
| 20260906092148 | 20 | 57 | 1.6 | 3.2 | 0.00 | 0.00 | 0.00 | 94 | 1016.8 |
| 20260906091508 | 20 | 52 | 1.6 | 3.2 | 0.00 | 0.00 | 0.00 | 94 | 1016.4 |
| 20260906090828 | 20 | 34 | 1.6 | 3.2 | 0.00 | 0.00 | 0.00 | 94 | 1016.4 |
| 20260906090148 | 20 | 56 | 1.6 | 3.2 | 0.00 | 0.00 | 0.00 | 94 | 1016.4 |
| 20260906085508 | 20 | 359 | 1.6 | 0.0 | 0.00 | 0.00 | 0.00 | 94 | 1016.4 |
| 20260906084545 | 20 | 359 | 1.6 | 3.2 | 0.00 | 0.00 | 0.00 | 94 | 1016.8 |
| 20260906083905 | 20 | 354 | 1.6 | 3.2 | 0.00 | 0.00 | 0.00 | 94 | 1016.8 |
| 20260906083225 | 20 | 326 | 1.6 | 3.2 | 0.00 | 0.00 | 0.00 | 94 | 1016.8 |
| 20260906082545 | 20 | 344 | 1.6 | 3.2 | 0.00 | 0.00 | 0.00 | 94 | 1016.8 |
| 20260906081905 | 20 | 358 | 1.6 | 3.2 | 0.00 | 0.00 | 0.00 | 94 | 1016.4 |
| 20260906081225 | 20 | 4 | 1.6 | 3.2 | 0.00 | 0.00 | 0.00 | 93 | 1016.4 |
| 20260906080545 | 20 | 2 | 3.2 | 4.8 | 0.00 | 0.00 | 0.00 | 93 | 1016.4 |
| 20260906075906 | 20 | 5 | 1.6 | 4.8 | 0.00 | 0.00 | 0.00 | 92 | 1016.8 |
| 20260906075225 | 20 | 18 | 3.2 | 3.2 | 0.00 | 0.00 | 0.00 | 92 | 1016.4 |
| 20260906074333 | 20 | 54 | 1.6 | 4.8 | 0.00 | 0.00 | 0.00 | 91 | 1016.4 |
| 20260906073653 | 20 | 8 | 3.2 | 4.8 | 0.00 | 0.00 | 0.00 | 91 | 1016.4 |
| 20260906073013 | 20 | 2 | 1.6 | 3.2 | 0.00 | 0.00 | 0.00 | 90 | 1016.4 |
| 20260906072333 | 20 | 8 | 1.6 | 3.2 | 0.00 | 0.00 | 0.00 | 90 | 1016.4 |
| 20260906071653 | 21 | 7 | 1.6 | 0.0 | 0.00 | 0.00 | 0.00 | 89 | 1016.4 |
| 20260906070802 | 21 | 358 | 1.6 | 4.8 | 0.00 | 0.00 | 0.00 | 88 | 1016.4 |
| 20260906070122 | 21 | 32 | 3.2 | 4.8 | 0.00 | 0.00 | 0.00 | 90 | 1016.4 |
| 20260906065442 | 21 | 16 | 1.6 | 4.8 | 0.00 | 0.00 | 0.00 | 89 | 1016.4 |
| 20260906064802 | 21 | 30 | 1.6 | 4.8 | 0.00 | 0.00 | 0.00 | 89 | 1016.4 |
| 20260906064122 | 21 | 48 | 1.6 | 4.8 | 0.00 | 0.00 | 0.00 | 89 | 1016.4 |
| 20260906063442 | 21 | 47 | 3.2 | 6.4 | 0.00 | 0.00 | 0.00 | 89 | 1016.4 |
| 20260906062802 | 21 | 54 | 1.6 | 4.8 | 0.00 | 0.00 | 0.00 | 89 | 1016.4 |
| 20260906062122 | 21 | 52 | 3.2 | 4.8 | 0.00 | 0.00 | 0.00 | 89 | 1016.4 |
| 20260906061442 | 21 | 45 | 1.6 | 6.4 | 0.00 | 0.00 | 0.00 | 89 | 1016.4 |
| 20260906060802 | 21 | 47 | 3.2 | 1.6 | 0.00 | 0.00 | 0.00 | 88 | 1016.4 |
| 20260906055659 | 21 | 53 | 4.8 | 8.0 | 0.00 | 0.00 | 0.00 | 88 | 1016.4 |
| 20260906055019 | 21 | 62 | 3.2 | 6.4 | 0.00 | 0.00 | 0.00 | 88 | 1016.1 |
| 20260906054339 | 21 | 55 | 4.8 | 9.7 | 0.00 | 0.00 | 0.00 | 88 | 1016.1 |
| 20260906053659 | 21 | 54 | 4.8 | 9.7 | 0.00 | 0.00 | 0.00 | 87 | 1016.1 |
| 20260906053019 | 21 | 56 | 6.4 | 9.7 | 0.00 | 0.00 | 0.00 | 87 | 1016.1 |
| 20260906052339 | 21 | 62 | 3.2 | 9.7 | 0.00 | 0.00 | 0.00 | 86 | 1016.1 |
| 20260906051659 | 22 | 56 | 4.8 | 9.7 | 0.00 | 0.00 | 0.00 | 86 | 1016.1 |
| 20260906051019 | 22 | 55 | 4.8 | 11.3 | 0.00 | 0.00 | 0.00 | 86 | 1016.1 |
| 20260906050339 | 22 | 63 | 4.8 | 9.7 | 0.00 | 0.00 | 0.00 | 85 | 1015.7 |
| 20260906045659 | 22 | 56 | 4.8 | 9.7 | 0.00 | 0.00 | 0.00 | 85 | 1016.1 |
| 20260906045019 | 22 | 49 | 4.8 | 9.7 | 0.00 | 0.00 | 0.00 | 85 | 1016.1 |
| 20260906044339 | 22 | 33 | 4.8 | 9.7 | 0.00 | 0.00 | 0.00 | 86 | 1015.7 |
| 20260906043659 | 22 | 55 | 4.8 | 6.4 | 0.00 | 0.00 | 0.00 | 85 | 1015.7 |
| 20260906042807 | 22 | 60 | 4.8 | 11.3 | 0.00 | 0.00 | 0.00 | 84 | 1015.7 |
| 20260906042127 | 22 | 63 | 4.8 | 8.0 | 0.00 | 0.00 | 0.00 | 84 | 1015.7 |
| 20260906041235 | 22 | 58 | 4.8 | 3.2 | 0.00 | 0.00 | 0.00 | 84 | 1015.7 |
| 20260906040344 | 22 | 56 | 6.4 | 11.3 | 0.00 | 0.00 | 0.00 | 84 | 1015.4 |
| 20260906035704 | 23 | 68 | 6.4 | 6.4 | 0.00 | 0.00 | 0.00 | 83 | 1015.4 |
| 20260906034601 | 23 | 53 | 4.8 | 12.9 | 0.00 | 0.00 | 0.00 | 84 | 1015.4 |
| 20260906033920 | 23 | 62 | 6.4 | 6.4 | 0.00 | 0.00 | 0.00 | 84 | 1015.4 |
| 20260906032958 | 23 | 55 | 8.0 | 6.4 | 0.00 | 0.00 | 0.00 | 84 | 1015.4 |
| 20260906032102 | 22 | 66 | 4.8 | 9.7 | 0.00 | 0.00 | 0.00 | 85 | 1015.4 |
| 20260906031422 | 22 | 60 | 3.2 | 9.7 | 0.00 | 0.00 | 0.00 | 87 | 1015.4 |
| 20260906030742 | 22 | 56 | 4.8 | 8.0 | 0.00 | 0.00 | 0.00 | 89 | 1015.4 |
| 20260906025422 | 22 | 45 | 3.2 | 6.4 | 0.00 | 0.00 | 0.00 | 90 | 1015.4 |
| 20260906024742 | 22 | 55 | 3.2 | 11.3 | 0.00 | 0.00 | 0.00 | 90 | 1015.4 |
| 20260906024102 | 22 | 37 | 4.8 | 8.0 | 0.00 | 0.00 | 0.00 | 90 | 1015.4 |
| 20260906023207 | 22 | 45 | 3.2 | 11.3 | 0.00 | 0.00 | 0.00 | 90 | 1015.4 |
| 20260906022527 | 22 | 28 | 4.8 | 11.3 | 0.00 | 0.00 | 0.00 | 90 | 1015.4 |
| 20260906021847 | 22 | 354 | 8.0 | 11.3 | 0.00 | 0.00 | 0.00 | 90 | 1015.4 |
| 20260906021207 | 22 | 2 | 6.4 | 11.3 | 0.00 | 0.00 | 0.00 | 90 | 1015.4 |
| 20260906020527 | 22 | 356 | 6.4 | 9.7 | 0.00 | 0.00 | 0.00 | 90 | 1015.4 |
| 20260906015847 | 22 | 354 | 8.0 | 14.5 | 0.00 | 0.00 | 0.00 | 89 | 1015.4 |
| 20260906015207 | 22 | 5 | 4.8 | 9.7 | 0.00 | 0.00 | 0.00 | 89 | 1015.1 |
| 20260906014527 | 22 | 355 | 4.8 | 3.2 | 0.00 | 0.00 | 0.00 | 89 | 1015.1 |
| 20260906013606 | 22 | 10 | 6.4 | 17.7 | 0.00 | 0.00 | 0.00 | 89 | 1015.1 |
| 20260906012926 | 22 | 6 | 8.0 | 16.1 | 0.00 | 0.00 | 0.00 | 89 | 1014.7 |
| 20260906012246 | 22 | 355 | 9.7 | 6.4 | 0.00 | 0.00 | 0.00 | 88 | 1014.7 |
| 20260906011354 | 22 | 358 | 9.7 | 20.9 | 0.00 | 0.00 | 0.00 | 88 | 1014.7 |
| 20260906010714 | 22 | 16 | 4.8 | 17.7 | 0.00 | 0.00 | 0.00 | 87 | 1014.7 |
| 20260906010034 | 22 | 9 | 8.0 | 16.1 | 0.00 | 0.00 | 0.00 | 87 | 1014.7 |
| 20260906005354 | 22 | 28 | 6.4 | 17.7 | 0.00 | 0.00 | 0.00 | 87 | 1014.7 |
| 20260906004714 | 22 | 10 | 8.0 | 17.7 | 0.00 | 0.00 | 0.00 | 86 | 1014.4 |
| 20260906004034 | 22 | 6 | 6.4 | 17.7 | 0.00 | 0.00 | 0.00 | 86 | 1014.7 |
| 20260906003354 | 22 | 26 | 8.0 | 19.3 | 0.00 | 0.00 | 0.00 | 86 | 1014.7 |
| 20260906002714 | 22 | 44 | 6.4 | 12.9 | 0.00 | 0.00 | 0.00 | 85 | 1014.4 |
| 20260906002034 | 22 | 23 | 6.4 | 11.3 | 0.00 | 0.00 | 0.00 | 86 | 1014.4 |
| 20260906001354 | 22 | 17 | 9.7 | 3.2 | 0.00 | 0.00 | 0.00 | 86 | 1014.4 |
| 20260906000502 | 22 | 20 | 6.4 | 16.1 | 0.00 | 0.00 | 0.00 | 86 | 1014.4 |
| 20260905235822 | 22 | 8 | 9.7 | 19.3 | 0.00 | 0.00 | 0.00 | 86 | 1014.4 |
| 20260905235142 | 22 | 24 | 9.7 | 19.3 | 0.00 | 0.00 | 0.00 | 85 | 1014.4 |
| 20260905234502 | 22 | 13 | 8.0 | 9.7 | 0.00 | 0.00 | 0.00 | 84 | 1014.4 |
| 20260905233537 | 23 | 7 | 6.4 | 19.3 | 0.00 | 0.00 | 0.00 | 85 | 1014.4 |
| 20260905232857 | 23 | 4 | 8.0 | 20.9 | 0.00 | 0.00 | 0.00 | 85 | 1014.4 |
| 20260905232217 | 23 | 19 | 11.3 | 20.9 | 0.00 | 0.00 | 0.00 | 84 | 1014.4 |
| 20260905231537 | 23 | 15 | 8.0 | 20.9 | 0.00 | 0.00 | 0.00 | 84 | 1014.4 |
| 20260905230857 | 23 | 2 | 9.7 | 17.7 | 0.00 | 0.00 | 0.00 | 84 | 1014.4 |
| 20260905230217 | 23 | 27 | 6.4 | 19.3 | 0.00 | 0.00 | 0.00 | 84 | 1014.4 |
| 20260905225537 | 23 | 24 | 6.4 | 17.7 | 0.00 | 0.00 | 0.00 | 83 | 1014.4 |
| 20260905224857 | 23 | 36 | 6.4 | 17.7 | 0.00 | 0.00 | 0.00 | 83 | 1014.0 |
| 20260905224217 | 23 | 359 | 11.3 | 19.3 | 0.00 | 0.00 | 0.00 | 82 | 1014.0 |
| 20260905223537 | 23 | 5 | 8.0 | 20.9 | 0.00 | 0.00 | 0.00 | 82 | 1014.0 |
| 20260905222857 | 23 | 13 | 9.7 | 24.1 | 0.00 | 0.00 | 0.00 | 82 | 1014.0 |
| 20260905222218 | 23 | 15 | 9.7 | 20.9 | 0.00 | 0.00 | 0.00 | 81 | 1014.0 |
| 20260905221537 | 23 | 3 | 9.7 | 22.5 | 0.00 | 0.00 | 0.00 | 81 | 1014.0 |
| 20260905220857 | 23 | 353 | 16.1 | 11.3 | 0.00 | 0.00 | 0.00 | 81 | 1014.0 |
| 20260905220006 | 24 | 6 | 9.7 | 20.9 | 0.00 | 0.00 | 0.00 | 79 | 1014.0 |
| 20260905215326 | 25 | 2 | 11.3 | 16.1 | 0.00 | 0.00 | 0.00 | 78 | 1014.0 |
| 20260905214433 | 25 | 8 | 11.3 | 22.5 | 0.00 | 0.00 | 0.00 | 78 | 1014.0 |
| 20260905213753 | 25 | 9 | 14.5 | 24.1 | 0.00 | 0.00 | 0.00 | 78 | 1013.7 |
| 20260905213114 | 25 | 355 | 11.3 | 27.4 | 0.00 | 0.00 | 0.00 | 77 | 1013.7 |
| 20260905212433 | 25 | 357 | 16.1 | 27.4 | 0.00 | 0.00 | 0.00 | 77 | 1013.7 |
| 20260905211753 | 25 | 355 | 14.5 | 25.7 | 0.00 | 0.00 | 0.00 | 78 | 1013.7 |
| 20260905211113 | 24 | 356 | 14.5 | 25.7 | 0.00 | 0.00 | 0.00 | 79 | 1013.7 |
| 20260905210433 | 25 | 360 | 14.5 | 22.5 | 0.00 | 0.00 | 0.00 | 78 | 1013.7 |
| 20260905205753 | 25 | 355 | 16.1 | 22.5 | 0.00 | 0.00 | 0.00 | 77 | 1013.7 |
| 20260905205113 | 25 | 14 | 11.3 | 20.9 | 0.00 | 0.00 | 0.00 | 76 | 1013.7 |
| 20260905204433 | 25 | 331 | 11.3 | 16.1 | 0.00 | 0.00 | 0.00 | 77 | 1013.7 |
| 20260905203508 | 25 | 356 | 12.9 | 25.7 | 0.00 | 0.00 | 0.00 | 78 | 1013.7 |
| 20260905202828 | 25 | 350 | 16.1 | 25.7 | 0.00 | 0.00 | 0.00 | 77 | 1013.7 |
| 20260905202148 | 26 | 356 | 9.7 | 22.5 | 0.00 | 0.00 | 0.00 | 76 | 1013.7 |
| 20260905201508 | 25 | 353 | 8.0 | 22.5 | 0.00 | 0.00 | 0.00 | 78 | 1013.7 |
| 20260905200828 | 25 | 12 | 9.7 | 19.3 | 0.00 | 0.00 | 0.00 | 77 | 1013.7 |
| 20260905200148 | 26 | 5 | 9.7 | 19.3 | 0.00 | 0.00 | 0.00 | 77 | 1013.7 |
| 20260905195508 | 26 | 0 | 14.5 | 12.9 | 0.00 | 0.00 | 0.00 | 77 | 1013.7 |
| 20260905194300 | 27 | 3 | 12.9 | 20.9 | 0.00 | 0.00 | 0.00 | 72 | 1013.7 |
| 20260905193620 | 27 | 10 | 11.3 | 20.9 | 0.00 | 0.00 | 0.00 | 73 | 1013.7 |
| 20260905192940 | 27 | 355 | 11.3 | 20.9 | 0.00 | 0.00 | 0.00 | 73 | 1013.7 |
| 20260905192300 | 27 | 325 | 8.0 | 20.9 | 0.00 | 0.00 | 0.00 | 71 | 1014.0 |
| 20260905191620 | 27 | 357 | 14.5 | 20.9 | 0.00 | 0.00 | 0.00 | 71 | 1013.7 |
| 20260905190940 | 27 | 4 | 8.0 | 20.9 | 0.00 | 0.00 | 0.00 | 71 | 1013.7 |
| 20260905190300 | 27 | 356 | 8.0 | 20.9 | 0.00 | 0.00 | 0.00 | 70 | 1013.7 |
| 20260905185620 | 27 | 12 | 8.0 | 12.9 | 0.00 | 0.00 | 0.00 | 69 | 1013.7 |
| 20260905184726 | 27 | 32 | 9.7 | 19.3 | 0.00 | 0.00 | 0.00 | 67 | 1013.7 |
| 20260905184046 | 27 | 354 | 12.9 | 19.3 | 0.00 | 0.00 | 0.00 | 68 | 1014.0 |
| 20260905183406 | 27 | 21 | 9.7 | 19.3 | 0.00 | 0.00 | 0.00 | 67 | 1013.7 |
| 20260905182726 | 28 | 358 | 9.7 | 19.3 | 0.00 | 0.00 | 0.00 | 69 | 1013.7 |
| 20260905182046 | 28 | 15 | 6.4 | 19.3 | 0.00 | 0.00 | 0.00 | 67 | 1013.7 |
| 20260905181406 | 28 | 20 | 8.0 | 24.1 | 0.00 | 0.00 | 0.00 | 67 | 1013.7 |
| 20260905180726 | 28 | 351 | 9.7 | 22.5 | 0.00 | 0.00 | 0.00 | 66 | 1013.7 |
| 20260905180046 | 28 | 5 | 11.3 | 9.7 | 0.00 | 0.00 | 0.00 | 67 | 1013.7 |
| 20260905175152 | 28 | 35 | 6.4 | 22.5 | 0.00 | 0.00 | 0.00 | 67 | 1013.7 |
| 20260905174512 | 28 | 348 | 11.3 | 17.7 | 0.00 | 0.00 | 0.00 | 68 | 1013.7 |
| 20260905173832 | 28 | 349 | 9.7 | 17.7 | 0.00 | 0.00 | 0.00 | 68 | 1013.7 |
| 20260905173152 | 28 | 1 | 8.0 | 16.1 | 0.00 | 0.00 | 0.00 | 68 | 1013.7 |
| 20260905172512 | 28 | 359 | 8.0 | 6.4 | 0.00 | 0.00 | 0.00 | 68 | 1013.7 |
| 20260905171620 | 28 | 356 | 8.0 | 16.1 | 0.00 | 0.00 | 0.00 | 73 | 1013.7 |
| 20260905170940 | 28 | 35 | 4.8 | 17.7 | 0.00 | 0.00 | 0.00 | 72 | 1014.0 |
| 20260905170300 | 28 | 13 | 8.0 | 16.1 | 0.00 | 0.00 | 0.00 | 71 | 1014.0 |
| 20260905165620 | 28 | 309 | 6.4 | 16.1 | 0.00 | 0.00 | 0.00 | 73 | 1014.0 |
| 20260905164940 | 28 | 3 | 8.0 | 16.1 | 0.00 | 0.00 | 0.00 | 72 | 1014.0 |
| 20260905164300 | 28 | 24 | 8.0 | 12.9 | 0.00 | 0.00 | 0.00 | 74 | 1014.0 |
| 20260905163620 | 27 | 23 | 4.8 | 14.5 | 0.00 | 0.00 | 0.00 | 76 | 1014.0 |
| 20260905162940 | 27 | 3 | 9.7 | 16.1 | 0.00 | 0.00 | 0.00 | 76 | 1014.0 |
| 20260905162300 | 27 | 360 | 6.4 | 16.1 | 0.00 | 0.00 | 0.00 | 78 | 1014.0 |
| 20260905161620 | 27 | 350 | 6.4 | 12.9 | 0.00 | 0.00 | 0.00 | 77 | 1014.0 |
| 20260905160940 | 27 | 347 | 6.4 | 14.5 | 0.00 | 0.00 | 0.00 | 78 | 1014.0 |
| 20260905160300 | 27 | 24 | 3.2 | 8.0 | 0.00 | 0.00 | 0.00 | 80 | 1014.0 |
| 20260905155620 | 27 | 356 | 4.8 | 9.7 | 0.00 | 0.00 | 0.00 | 81 | 1014.0 |
| 20260905154940 | 26 | 62 | 3.2 | 11.3 | 0.00 | 0.00 | 0.00 | 84 | 1014.0 |
| 20260905154300 | 26 | 347 | 8.0 | 12.9 | 0.00 | 0.00 | 0.00 | 85 | 1014.0 |
| 20260905153620 | 26 | 358 | 8.0 | 14.5 | 0.00 | 0.00 | 0.00 | 85 | 1014.0 |
| 20260905152940 | 26 | 353 | 8.0 | 14.5 | 0.00 | 0.00 | 0.00 | 85 | 1014.0 |
| 20260905152300 | 26 | 4 | 8.0 | 16.1 | 0.00 | 0.00 | 0.00 | 85 | 1014.0 |
| 20260905151621 | 26 | 355 | 8.0 | 16.1 | 0.00 | 0.00 | 0.00 | 85 | 1014.0 |
| 20260905150940 | 26 | 29 | 3.2 | 16.1 | 0.00 | 0.00 | 0.00 | 86 | 1013.7 |
| 20260905150300 | 26 | 346 | 8.0 | 17.7 | 0.00 | 0.00 | 0.00 | 87 | 1013.7 |
| 20260905145620 | 26 | 349 | 9.7 | 16.1 | 0.00 | 0.00 | 0.00 | 87 | 1013.7 |
| 20260905144940 | 26 | 0 | 9.7 | 16.1 | 0.00 | 0.00 | 0.00 | 86 | 1013.7 |
| 20260905144301 | 27 | 35 | 4.8 | 11.3 | 0.00 | 0.00 | 0.00 | 83 | 1013.3 |
| 20260905143620 | 27 | 25 | 4.8 | 12.9 | 0.00 | 0.00 | 0.00 | 83 | 1013.3 |
| 20260905142940 | 27 | 2 | 6.4 | 12.9 | 0.00 | 0.00 | 0.00 | 85 | 1013.3 |
| 20260905142300 | 26 | 29 | 4.8 | 9.7 | 0.00 | 0.00 | 0.00 | 83 | 1013.3 |
| 20260905141620 | 26 | 355 | 3.2 | 11.3 | 0.00 | 0.00 | 0.00 | 86 | 1013.3 |
| 20260905140940 | 26 | 345 | 4.8 | 9.7 | 0.00 | 0.00 | 0.00 | 88 | 1013.7 |
| 20260905140300 | 26 | 340 | 4.8 | 9.7 | 0.00 | 0.00 | 0.00 | 88 | 1013.7 |
| 20260905135620 | 26 | 345 | 4.8 | 6.4 | 0.00 | 0.00 | 0.00 | 90 | 1013.7 |
| 20260905134940 | 26 | 61 | 3.2 | 6.4 | 0.00 | 0.00 | 0.00 | 90 | 1013.3 |
| 20260905134300 | 26 | 78 | 3.2 | 6.4 | 0.00 | 0.00 | 0.00 | 90 | 1013.3 |
| 20260905133620 | 26 | 337 | 1.6 | 4.8 | 0.00 | 0.00 | 0.00 | 91 | 1013.3 |
| 20260905132940 | 26 | 57 | 1.6 | 3.2 | 0.00 | 0.00 | 0.00 | 90 | 1013.3 |
| 20260905132047 | 26 | 67 | 1.6 | 4.8 | 0.00 | 0.00 | 0.00 | 91 | 1013.3 |
| 20260905131407 | 25 | 72 | 1.6 | 3.2 | 0.00 | 0.00 | 0.00 | 92 | 1013.3 |
| 20260905130727 | 25 | 112 | 1.6 | 3.2 | 0.00 | 0.00 | 0.00 | 93 | 1013.0 |
| 20260905130047 | 25 | 79 | 1.6 | 4.8 | 0.00 | 0.00 | 0.00 | 93 | 1013.0 |
| 20260905125407 | 25 | 59 | 1.6 | 4.8 | 0.00 | 0.00 | 0.00 | 92 | 1013.0 |
| 20260905124727 | 25 | 84 | 3.2 | 4.8 | 0.00 | 0.00 | 0.00 | 93 | 1013.0 |
| 20260905124047 | 25 | 74 | 3.2 | 4.8 | 0.00 | 0.00 | 0.00 | 94 | 1013.0 |
| 20260905123407 | 25 | 90 | 1.6 | 1.6 | 0.00 | 0.00 | 0.00 | 94 | 1013.0 |
| 20260905122727 | 24 | 263 | 0.0 | 1.6 | 0.00 | 0.00 | 0.00 | 95 | 1013.0 |
| 20260905122047 | 24 | 186 | 1.6 | 1.6 | 0.00 | 0.00 | 0.00 | 95 | 1012.6 |
| 20260905121407 | 24 | 209 | 0.0 | 3.2 | 0.00 | 0.00 | 0.00 | 95 | 1012.6 |
| 20260905120727 | 24 | 69 | 1.6 | 4.8 | 0.00 | 0.00 | 0.00 | 95 | 1012.6 |
| 20260905120048 | 24 | 52 | 3.2 | 4.8 | 0.00 | 0.00 | 0.00 | 95 | 1012.6 |
| 20260905115407 | 24 | 48 | 3.2 | 4.8 | 0.00 | 0.00 | 0.00 | 94 | 1012.6 |
| 20260905114727 | 23 | 102 | 1.6 | 3.2 | 0.00 | 0.00 | 0.00 | 96 | 1012.3 |
| 20260905114047 | 23 | 58 | 3.2 | 3.2 | 0.00 | 0.00 | 0.00 | 96 | 1012.3 |
| 20260905113407 | 23 | 132 | 1.6 | 1.6 | 0.00 | 0.00 | 0.00 | 96 | 1012.3 |
| 20260905112727 | 23 | 205 | 1.6 | 1.6 | 0.00 | 0.00 | 0.00 | 96 | 1012.3 |
| 20260905112047 | 23 | 218 | 1.6 | 1.6 | 0.00 | 0.00 | 0.00 | 96 | 1012.3 |
| 20260905111407 | 23 | 206 | 0.0 | 3.2 | 0.00 | 0.00 | 0.00 | 96 | 1011.9 |
| 20260905110727 | 23 | 333 | 1.6 | 3.2 | 0.00 | 0.00 | 0.00 | 96 | 1011.9 |
| 20260905110047 | 23 | 145 | 0.0 | 1.6 | 0.00 | 0.00 | 0.00 | 95 | 1011.9 |
| 20260905105154 | 23 | 336 | 0.0 | 3.2 | 0.00 | 0.00 | 0.00 | 95 | 1011.9 |
| 20260905104514 | 23 | 218 | 1.6 | 3.2 | 0.00 | 0.00 | 0.00 | 94 | 1011.9 |
| 20260905103834 | 23 | 231 | 0.0 | 3.2 | 0.00 | 0.00 | 0.00 | 94 | 1012.3 |
| 20260905103155 | 23 | 57 | 0.0 | 0.0 | 0.00 | 0.00 | 0.00 | 94 | 1012.3 |
| 20260905102301 | 23 | 179 | 1.6 | 3.2 | 0.00 | 0.00 | 0.00 | 95 | 1012.3 |
| 20260905101621 | 23 | 308 | 1.6 | 3.2 | 0.00 | 0.00 | 0.00 | 95 | 1012.3 |
| 20260905100941 | 23 | 351 | 3.2 | 3.2 | 0.00 | 0.00 | 0.00 | 95 | 1012.3 |